Location: Béaulencourt
(50.0796°N, 2.8795°E)
Time: 23:00:30
(UTC+00:00)

Cosmos 1269 Rocket - Pass Details

Date: 20 January 2026
Orbit: 769 x 775 km, 74.1° (Epoch: 9 February)

Event Time Altitude Azimuth Distance (km) Brightness Sun altitude
Exits shadow 05:02:27 23° 198° (SSW) 1,591 5.5 -24.3°
Maximum altitude 05:05:47 84° 113° (ESE) 787 4.0 -23.8°
Drops below altitude 10° 05:11:06 10° 25° (NNE) 2,334 6.7 -22.9°
Sets 05:13:30 0° 25° (NNE) 3,266 7.5 -22.6°
